Regional Weather Roundup
Issued by NWS

Home | Current Version | Previous Version | Graphics & Text | Print | Product List | Glossary On
Versions: 1 2 3 4 5 6 7 8 9 10 11 12 13 14 15 16 17 18 19 20 21 22 23 24 25 26 27 28 29 30 31 32 33 34 35 36 37 38 39 40 41 42 43 44 45 46 47 48 49 50
000
ASUS43 KBIS 232320
RWRND

NORTH DAKOTA REGIONAL WEATHER ROUNDUP
NATIONAL WEATHER SERVICE BISMARCK ND
600 PM CDT TUE SEP 23 2014

NOTE: "FAIR" INDICATES FEW OR NO CLOUDS BELOW 12,000 FEET WITH NO
SIGNIFICANT WEATHER AND/OR OBSTRUCTIONS TO VISIBILITY.


NDZ001>003-009>011-017-240000-
NORTHWEST NORTH DAKOTA

CITY           SKY/WX    TMP DP  RH WIND       PRES   REMARKS
WILLISTON      SUNNY     84  51  31 S6        29.82S
MINOT          SUNNY     75  57  53 SE16      29.85S
MINOT AFB      SUNNY     77  59  55 S10       29.84R
$$

NDZ018>021-031>035-040>046-240000-
SOUTHWEST NORTH DAKOTA

CITY           SKY/WX    TMP DP  RH WIND       PRES   REMARKS
BISMARCK       CLOUDY    64  57  78 SE16      29.93S
DICKINSON      SUNNY     79  59  50 SE9       29.84S
GARRISON         N/A     71  59  65 SE12      29.88S
HETTINGER ARPT SUNNY     78  56  46 S6        29.88R
$$

NDZ004>008-012>016-024-026-027-054-240000-
NORTHEAST NORTH DAKOTA

CITY           SKY/WX    TMP DP  RH WIND       PRES   REMARKS
GRAND FORKS    MOSUNNY   73  48  41 S20G26    29.97R
GRND FRKS AFB  MOSUNNY   74  54  50 S18G28    29.97S
DEVILS LAKE    PTSUNNY   68  55  64 S20G25    29.93S
$$

NDZ022-023-025-028>030-036>039-047>053-240000-
SOUTHEAST NORTH DAKOTA

CITY           SKY/WX    TMP DP  RH WIND       PRES   REMARKS
FARGO          CLOUDY    66  52  60 S14       30.03S
JAMESTOWN      CLOUDY    60  55  83 S13       29.98F
$$




USA.gov is the U.S. government's official web portal to all federal, state and local government web resources and services.